TimeHST,TemperatureF,Dew PointF,Humidity,Sea Level PressureIn,VisibilityMPH,Wind Direction,Wind SpeedMPH,Gust SpeedMPH,PrecipitationIn,Events,Conditions,WindDirDegrees,DateUTC
12:53 AM,66.9,55.9,68,30.09,10.0,North,8.1,-,N/A,,Scattered Clouds,350,2013-01-21 10:53:00
1:53 AM,66.0,55.9,70,30.08,10.0,North,10.4,-,N/A,,Partly Cloudy,350,2013-01-21 11:53:00
2:53 AM,68.0,55.9,65,30.08,10.0,North,9.2,-,N/A,,Mostly Cloudy,10,2013-01-21 12:53:00
3:53 AM,68.0,55.9,65,30.08,10.0,North,11.5,-,N/A,,Mostly Cloudy,360,2013-01-21 13:53:00
4:53 AM,70.0,55.9,61,30.08,10.0,NNE,15.0,-,N/A,,Overcast,20,2013-01-21 14:53:00
5:53 AM,70.0,55.9,61,30.09,10.0,NNE,13.8,-,N/A,,Overcast,20,2013-01-21 15:53:00
6:53 AM,70.0,55.9,61,30.11,10.0,NNE,17.3,21.9,N/A,,Overcast,20,2013-01-21 16:53:00
7:53 AM,70.0,57.0,63,30.12,10.0,NE,15.0,-,N/A,,Overcast,40,2013-01-21 17:53:00
8:53 AM,72.0,57.0,59,30.14,10.0,NE,16.1,21.9,N/A,,Overcast,40,2013-01-21 18:53:00
9:53 AM,73.0,59.0,61,30.16,10.0,NE,17.3,-,N/A,,Overcast,50,2013-01-21 19:53:00
10:53 AM,73.0,60.1,64,30.17,10.0,NE,16.1,-,N/A,,Overcast,50,2013-01-21 20:53:00
11:53 AM,73.0,59.0,61,30.15,10.0,NE,15.0,-,N/A,,Mostly Cloudy,40,2013-01-21 21:53:00
12:53 PM,73.9,60.1,62,30.13,10.0,NE,16.1,-,N/A,,Overcast,50,2013-01-21 22:53:00
1:53 PM,73.9,60.1,62,30.11,10.0,NE,16.1,-,N/A,,Overcast,50,2013-01-21 23:53:00
2:53 PM,73.9,61.0,64,30.09,10.0,NE,11.5,-,N/A,,Overcast,40,2013-01-22 00:53:00
3:53 PM,73.9,60.1,62,30.09,10.0,ENE,16.1,-,N/A,,Overcast,70,2013-01-22 01:53:00
4:53 PM,72.0,60.1,66,30.10,10.0,NE,15.0,-,N/A,,Overcast,40,2013-01-22 02:53:00
5:53 PM,72.0,61.0,68,30.10,10.0,NE,12.7,-,N/A,,Overcast,40,2013-01-22 03:53:00
6:08 PM,71.6,60.8,69,30.11,10.0,NE,11.5,-,N/A,,Overcast,50,2013-01-22 04:08:00
6:16 PM,71.6,60.8,69,30.11,10.0,NE,11.5,-,N/A,,Overcast,50,2013-01-22 04:16:00
6:33 PM,71.6,62.6,73,30.12,10.0,ENE,13.8,-,N/A,,Overcast,70,2013-01-22 04:33:00
6:48 PM,71.6,60.8,69,30.12,10.0,ENE,12.7,-,N/A,,Overcast,60,2013-01-22 04:48:00
6:53 PM,72.0,61.0,68,30.12,10.0,ENE,12.7,-,N/A,,Overcast,60,2013-01-22 04:53:00
7:53 PM,72.0,62.1,71,30.13,10.0,ENE,15.0,-,N/A,,Mostly Cloudy,70,2013-01-22 05:53:00
8:53 PM,71.1,61.0,70,30.15,10.0,ENE,11.5,-,N/A,,Mostly Cloudy,60,2013-01-22 06:53:00
9:53 PM,71.1,61.0,70,30.16,10.0,NE,11.5,-,N/A,,Mostly Cloudy,50,2013-01-22 07:53:00
10:53 PM,72.0,61.0,68,30.16,10.0,ENE,10.4,-,N/A,,Overcast,60,2013-01-22 08:53:00
11:53 PM,72.0,61.0,68,30.15,10.0,NE,11.5,-,N/A,,Mostly Cloudy,40,2013-01-22 09:53:00